TimeMDT,TemperatureF,Dew PointF,Humidity,Sea Level PressureIn,VisibilityMPH,Wind Direction,Wind SpeedMPH,Gust SpeedMPH,PrecipitationIn,Events,Conditions,WindDirDegrees,DateUTC
12:53 AM,32.0,25.0,75,30.46,10.0,West,6.9,-,N/A,,Clear,260,2012-10-05 06:53:00
1:53 AM,33.8,26.6,75,30.34,10.0,West,5.8,-,N/A,,Overcast,270,2012-10-05 07:53:00
2:53 AM,33.1,26.1,75,30.46,10.0,West,5.8,-,N/A,,Overcast,270,2012-10-05 08:53:00
3:53 AM,33.1,26.1,75,30.45,10.0,West,5.8,-,N/A,,Overcast,270,2012-10-05 09:53:00
4:53 AM,33.1,26.1,75,30.45,10.0,West,3.5,-,N/A,,Overcast,270,2012-10-05 10:53:00
5:53 AM,34.0,26.1,73,30.46,10.0,West,4.6,-,N/A,,Overcast,270,2012-10-05 11:53:00
6:53 AM,34.0,26.1,73,30.47,10.0,West,5.8,-,N/A,,Overcast,270,2012-10-05 12:53:00
7:53 AM,34.0,26.1,73,30.48,10.0,West,4.6,-,N/A,,Overcast,280,2012-10-05 13:53:00
8:53 AM,35.1,26.1,70,30.49,10.0,West,5.8,-,N/A,,Overcast,280,2012-10-05 14:53:00
9:53 AM,37.0,25.0,62,30.50,10.0,Variable,5.8,-,N/A,,Mostly Cloudy,0,2012-10-05 15:53:00
10:53 AM,39.9,24.1,53,30.49,10.0,Variable,4.6,-,N/A,,Mostly Cloudy,0,2012-10-05 16:53:00
11:53 AM,39.9,21.9,49,30.50,10.0,North,6.9,-,N/A,,Mostly Cloudy,350,2012-10-05 17:53:00
12:53 PM,42.1,21.0,43,30.50,10.0,North,8.1,-,N/A,,Overcast,360,2012-10-05 18:53:00
1:53 PM,43.0,17.1,35,30.48,10.0,Variable,3.5,-,N/A,,Scattered Clouds,0,2012-10-05 19:53:00
2:53 PM,42.1,17.1,37,30.48,10.0,NNW,9.2,-,N/A,,Mostly Cloudy,340,2012-10-05 20:53:00
3:53 PM,41.0,19.9,43,30.49,10.0,North,13.8,-,N/A,,Overcast,350,2012-10-05 21:53:00
4:53 PM,43.0,17.1,35,30.49,10.0,North,11.5,-,N/A,,Mostly Cloudy,350,2012-10-05 22:53:00
5:53 PM,39.0,17.1,41,30.50,10.0,NNW,6.9,-,N/A,,Clear,340,2012-10-05 23:53:00
6:53 PM,37.4,17.6,45,30.39,10.0,North,8.1,-,N/A,,Clear,350,2012-10-06 00:53:00
7:53 PM,34.0,17.1,50,30.54,10.0,NW,6.9,-,N/A,,Clear,320,2012-10-06 01:53:00
8:53 PM,33.1,19.0,56,30.54,10.0,SW,5.8,-,N/A,,Clear,230,2012-10-06 02:53:00
9:53 PM,32.0,19.0,59,30.53,10.0,Calm,Calm,-,N/A,,Clear,0,2012-10-06 03:53:00
10:53 PM,28.9,19.0,67,30.53,10.0,WSW,5.8,-,N/A,,Clear,240,2012-10-06 04:53:00
11:53 PM,27.0,19.0,72,30.53,10.0,Calm,Calm,-,N/A,,Clear,0,2012-10-06 05:53:00